This demonstration page uses our WeatherBlox Daily Observations layout. Learn more.

Left ArrowRight Arrow

53.62937, 11.41316

Hourly Observations for April 18, 2015

Temp ( °F °C ) Dew Point ( °F °C ) Humidity (%) Winds ( mph kmh ) Pressure ( in mb ) Visibility ( mi km ) Precip ( " mm )
6:20 am 06:20 Partly Cloudy with Freezing Fog 27 -3 27 -3 100 100 W 2 4 30.24 1024 0 0 N/A
6:50 am 06:50 Partly Cloudy with Freezing Fog 28 -2 28 -2 100 100 WSW 3 6 30.27 1025 0 0 N/A
7:20 am 07:20 Partly Cloudy with Freezing Fog 28 -2 28 -2 100 100 WSW 3 6 30.27 1025 0 0 N/A
7:50 am 07:50 Partly Cloudy with Freezing Fog 30 -1 30 -1 100 100 VRB 1 2 30.27 1025 0 1 N/A
8:20 am 08:20 Mostly Sunny 36 2 36 2 100 100 VRB 1 2 30.27 1025 4 6 N/A
8:50 am 08:50 Mostly Sunny 41 5 39 4 93 93 NW 5 7 30.30 1026 7 11 N/A
9:20 am 09:20 Mostly Sunny 43 6 39 4 87 87 NNW 7 11 30.30 1026 7 11 N/A
9:50 am 09:50 Mostly Sunny 45 7 36 2 71 71 N 9 15 30.30 1026 30 48 N/A
10:20 am 10:20 Partly Cloudy 46 8 34 1 62 62 N 8 13 30.30 1026 30 48 N/A
10:50 am 10:50 Mostly Sunny 48 9 36 2 62 62 N 10 17 30.30 1026 7 11 N/A
11:20 am 11:20 Mostly Sunny 50 10 34 1 54 54 N 10 17 30.30 1026 7 11 N/A
11:50 am 11:50 Partly Cloudy 50 10 30 -1 47 47 N 9 15 30.30 1026 30 48 N/A
12:20 pm 12:20 Mostly Sunny 50 10 27 -3 40 40 NNW 10 17 30.30 1026 7 11 N/A
12:50 pm 12:50 Mostly Sunny 52 11 27 -3 38 38 N 12 19 30.30 1026 7 11 N/A
1:20 pm 13:20 Mostly Sunny 52 11 28 -2 41 41 N 9 15 30.30 1026 7 11 N/A
1:50 pm 13:50 Mostly Sunny 50 10 25 -4 37 37 NNW 10 17 30.30 1026 7 11 N/A
2:20 pm 14:20 Mostly Sunny 52 11 27 -3 38 38 NNW 9 15 30.30 1026 7 11 N/A
2:50 pm 14:50 Mostly Sunny 52 11 28 -2 41 41 NW 12 19 30.27 1025 7 11 N/A
3:20 pm 15:20 Mostly Sunny 52 11 28 -2 41 41 NW 13 20 30.27 1025 7 11 N/A
3:50 pm 15:50 Mostly Sunny 52 11 28 -2 41 41 NNW 10 17 30.27 1025 7 11 N/A
4:20 pm 16:20 Mostly Sunny 52 11 28 -2 41 41 N 9 15 30.27 1025 7 11 N/A
4:50 pm 16:50 Mostly Sunny 52 11 27 -3 38 38 NW 9 15 30.27 1025 7 11 N/A
5:20 pm 17:20 Mostly Sunny 52 11 25 -4 35 35 NW 10 17 30.24 1024 7 11 N/A
5:50 pm 17:50 Mostly Sunny 52 11 25 -4 35 35 NW 7 11 30.24 1024 7 11 N/A
6:20 pm 18:20 Mostly Sunny 52 11 27 -3 38 38 NW 8 13 30.24 1024 7 11 N/A
6:50 pm 18:50 Mostly Sunny 50 10 28 -2 43 43 NW 9 15 30.24 1024 7 11 N/A

Powered by AerisWeather